User: anonymous   Login
Location: Peterborough
(44.3091°N, 78.3197°W)
Time: 17:58:09
(UTC-04:00)
Language:

Explorer 11/Cluster Stage 4 - Orbit

View from above orbital plane
View from above orbital plane
View from above satellite
View from above satellite

Ground track
Ground track

The orbit data is extracted from the following two-line orbital elements,

1 00107U 61013A   24197.61528974  .00008478  00000-0  10760-2 0  9997
2 00107  28.7868  25.0699 0520002  82.9449 282.9946 14.15610522176725
Epoch (UTC): 15 July 2024 14:46:01
Eccentricity: 0.0520002
inclination: 28.7868°
perigee height: 465 km
apogee height: 1215 km
right ascension of ascending node: 25.0699°
argument of perigee: 82.9449°
revolutions per day: 14.15610522
mean anomaly at epoch: 282.9946°
orbit number at epoch: 17672

The dashed part of the orbit path shows where the satellite is in the earth's shadow,  

DLR